Погода в Луне

Россия / Республика Коми     62°14′01″N   52°29′42″E
темп.,
°C
ветер,
м/с
пор.,
м/с
влажн.,
%
обл.,
%
осадки,
мм/ч
давл.,
гПа
погр.,
м
19 апреля, пн
пн1900:00−5св12855 0.0 103845
03:00−5в11845 0.0 103923
06:00−3юв00675 0.0 1039163
09:00+2ссз12455 0.0 10381106
12:00+4сз22385 0.0 10371374
15:00+4зсз23395 0.0 10361401
18:00+2з11665 0.0 103510
21:00−3зюз22845 0.0 103531
20 апреля, вт
вт2000:00−3зюз26775 0.0 103487
03:00−2зюз28768 0.0 1034149
06:00+1з396240 0.0 1034284
09:00+6зсз464465 0.0 1033891
12:00+8зсз354148 0.0 10321174
15:00+9зсз34417 0.0 10311183
18:00+6з11585 0.0 103110
21:00+3з11675 0.0 103110
21 апреля, ср
ср2100:00+1ююз11725 0.0 103110
03:000ю11750 0.0 103110
06:00+3ю23665 0.0 1031125
09:00+8ююв244843 0.0 1030645
12:00+11ююв453946 0.0 10281256
15:00+12ююв4738100 0.0 10261474
18:00+9ююв41051100 0.0 1025669
21:00+7ююв51362100 0.0 1024693
22 апреля, чт
чт2200:00+7ююв51361100 0.0 1022900
03:00+5ю51274100 0.2 1022951
06:00+4ююв51296100 0.9 1021794
09:00+4ю51295100 2.8 1021908
12:00+3ю51196100 2.5 1021751
15:00+3ю41196100 4.2 1021612
18:00+3ю41097100 0.0 1021770
21:00+3ю41097100 0.3 1021729
23 апреля, пт
пт2300:00+3ююз41097100 1.0 1021711
03:00+3ю41092100 1.1 1021565
06:00+4ю41190100 0.0 1021862
09:00+6ююз5118496 0.0 1021891
12:00+8ююз598098 0.1 1021840
15:00+10ююз3770100 0.1 10221074
18:00+8ююз3884100 0.1 1023343
21:00+6ю279198 0.1 1024220